TimeEST,TemperatureF,Dew PointF,Humidity,Sea Level PressureIn,VisibilityMPH,Wind Direction,Wind SpeedMPH,Gust SpeedMPH,PrecipitationIn,Events,Conditions,WindDirDegrees,DateUTC
12:53 AM,43.0,41.0,93,30.08,10.0,ENE,3.5,-,N/A,,Partly Cloudy,60,2012-12-07 05:53:00
1:53 AM,41.0,39.0,93,30.08,6.0,Calm,Calm,-,N/A,,Scattered Clouds,0,2012-12-07 06:53:00
2:53 AM,42.1,39.9,92,30.08,7.0,Calm,Calm,-,N/A,,Overcast,0,2012-12-07 07:53:00
3:53 AM,41.0,39.0,93,30.08,4.0,Calm,Calm,-,N/A,,Mostly Cloudy,0,2012-12-07 08:53:00
4:51 AM,39.2,37.4,93,30.09,1.8,Calm,Calm,-,N/A,,Mostly Cloudy,0,2012-12-07 09:51:00
4:53 AM,39.0,37.9,96,30.07,1.8,Calm,Calm,-,N/A,,Mostly Cloudy,0,2012-12-07 09:53:00
5:04 AM,39.2,37.4,93,30.09,2.0,Calm,Calm,-,N/A,,Mostly Cloudy,0,2012-12-07 10:04:00
5:51 AM,39.2,37.4,93,30.09,4.0,Calm,Calm,-,N/A,,Mostly Cloudy,0,2012-12-07 10:51:00
5:53 AM,39.0,37.9,96,30.08,4.0,Calm,Calm,-,N/A,,Mostly Cloudy,0,2012-12-07 10:53:00
6:53 AM,37.0,36.0,96,30.09,4.0,Calm,Calm,-,N/A,,Scattered Clouds,0,2012-12-07 11:53:00
7:53 AM,39.9,37.9,93,30.09,10.0,Calm,Calm,-,N/A,,Scattered Clouds,0,2012-12-07 12:53:00
8:53 AM,42.1,39.9,92,30.09,10.0,Calm,Calm,-,N/A,,Scattered Clouds,0,2012-12-07 13:53:00
9:53 AM,45.0,42.1,90,30.08,10.0,Calm,Calm,-,N/A,,Scattered Clouds,0,2012-12-07 14:53:00
10:53 AM,51.1,44.1,77,30.06,10.0,Calm,Calm,-,N/A,,Scattered Clouds,0,2012-12-07 15:53:00
11:53 AM,54.0,46.0,75,30.04,10.0,Calm,Calm,-,N/A,,Overcast,0,2012-12-07 16:53:00
12:53 PM,57.9,46.9,67,30.01,10.0,Variable,3.5,-,N/A,,Mostly Cloudy,0,2012-12-07 17:53:00
1:53 PM,61.0,48.0,62,29.97,10.0,West,3.5,-,N/A,,Mostly Cloudy,280,2012-12-07 18:53:00
2:53 PM,62.1,48.0,60,29.95,10.0,Calm,Calm,-,N/A,,Mostly Cloudy,0,2012-12-07 19:53:00
3:53 PM,63.0,46.9,56,29.94,10.0,WNW,3.5,-,N/A,,Mostly Cloudy,300,2012-12-07 20:53:00
4:53 PM,60.1,46.9,62,29.94,10.0,Calm,Calm,-,N/A,,Mostly Cloudy,0,2012-12-07 21:53:00
5:53 PM,54.0,46.0,75,29.94,10.0,Calm,Calm,-,N/A,,Mostly Cloudy,0,2012-12-07 22:53:00
6:53 PM,48.9,44.1,83,29.96,10.0,Calm,Calm,-,N/A,,Mostly Cloudy,0,2012-12-07 23:53:00
7:53 PM,46.9,44.1,90,29.96,10.0,Calm,Calm,-,N/A,,Mostly Cloudy,0,2012-12-08 00:53:00
8:53 PM,46.9,44.1,90,29.97,10.0,Calm,Calm,-,N/A,,Mostly Cloudy,0,2012-12-08 01:53:00
9:53 PM,44.1,42.1,93,29.96,10.0,Calm,Calm,-,N/A,,Partly Cloudy,0,2012-12-08 02:53:00
10:53 PM,45.0,43.0,93,29.96,10.0,Calm,Calm,-,N/A,,Scattered Clouds,0,2012-12-08 03:53:00
11:53 PM,44.1,43.0,96,29.96,9.0,Calm,Calm,-,N/A,,Overcast,0,2012-12-08 04:53:00